TimeCST,TemperatureF,Dew PointF,Humidity,Sea Level PressureIn,VisibilityMPH,Wind Direction,Wind SpeedMPH,Gust SpeedMPH,PrecipitationIn,Events,Conditions,WindDirDegrees,DateUTC
12:00 AM,64,61,87,30.02,6,NNE,9.2,,,,Haze,20,2012-11-08 06:00:00
12:00 AM,64.4,60.8,88,30.15,6.2,NNE,9.2,-,N/A,,Mostly Cloudy,20,2012-11-08 06:00:00
1:00 AM,62.6,59.0,88,30.12,6.2,NNE,10.4,-,N/A,,Scattered Clouds,20,2012-11-08 07:00:00
2:00 AM,62.6,55.4,77,30.12,6.2,North,6.9,-,N/A,,Mostly Cloudy,360,2012-11-08 08:00:00
3:00 AM,61,55,75,30.01,7,North,8.1,,,,Haze,350,2012-11-08 09:00:00
3:00 AM,60.8,55.4,82,30.12,-9999.0,North,8.1,-,N/A,,Clear,350,2012-11-08 09:00:00
4:00 AM,60.8,57.2,88,30.12,-9999.0,NNW,6.9,-,N/A,,Clear,340,2012-11-08 10:00:00
5:00 AM,60.8,57.2,88,30.12,6.2,North,11.5,-,N/A,,Unknown,360,2012-11-08 11:00:00
6:00 AM,58,56,90,30.06,9,North,6.9,,,,Haze,0,2012-11-08 12:00:00
6:00 AM,59.0,55.4,88,30.15,6.2,North,6.9,-,N/A,,Scattered Clouds,360,2012-11-08 12:00:00
7:00 AM,62.6,57.2,82,30.15,6.2,West,3.5,-,N/A,,Scattered Clouds,270,2012-11-08 13:00:00
8:00 AM,64.4,59.0,83,30.18,6.2,North,9.2,-,N/A,,Mostly Cloudy,360,2012-11-08 14:00:00
9:00 AM,70,62,67,30.01,9,North,13.8,,,,Haze,0,2012-11-08 15:00:00
9:00 AM,69.8,60.8,73,30.18,6.2,North,13.8,-,N/A,,Mostly Cloudy,360,2012-11-08 15:00:00
10:00 AM,71.6,60.8,69,30.18,6.2,North,18.4,-,N/A,,Mostly Cloudy,10,2012-11-08 16:00:00
11:00 AM,73.4,62.6,69,30.15,6.2,North,16.1,-,N/A,,Mostly Cloudy,360,2012-11-08 17:00:00
12:00 PM,77.0,62.6,61,30.12,6.2,North,17.3,-,N/A,,Scattered Clouds,360,2012-11-08 18:00:00
1:00 PM,77.0,62.6,61,30.09,6.2,North,17.3,-,N/A,,Scattered Clouds,360,2012-11-08 19:00:00
2:00 PM,77.0,64.4,65,30.06,6.2,North,19.6,-,N/A,,Mostly Cloudy,360,2012-11-08 20:00:00
3:00 PM,72,64,68,29.88,7,North,16.1,,,,Haze,10,2012-11-08 21:00:00
3:00 PM,73.4,64.4,73,30.06,6.2,North,16.1,-,N/A,,Mostly Cloudy,10,2012-11-08 21:00:00
4:00 PM,69.8,62.6,78,30.06,6.2,North,15.0,-,N/A,,Mostly Cloudy,10,2012-11-08 22:00:00
5:00 PM,68.0,62.6,83,30.09,6.2,North,16.1,-,N/A,,Mostly Cloudy,10,2012-11-08 23:00:00
6:00 PM,65,63,92,29.97,4,North,11.5,,,Rain,Light Drizzle,10,2012-11-09 00:00:00
6:00 PM,64.4,62.6,94,30.09,3.7,North,11.5,-,N/A,,Light Drizzle,10,2012-11-09 00:00:00
7:00 PM,64.4,62.6,94,30.12,3.7,North,12.7,-,N/A,,Light Drizzle,10,2012-11-09 01:00:00
8:00 PM,62.6,62.6,100,30.15,3.1,North,10.4,-,N/A,,Light Drizzle,10,2012-11-09 02:00:00
9:00 PM,63,63,98,30.03,3,NNE,8.1,,,Rain,Light Drizzle,30,2012-11-09 03:00:00
9:00 PM,62.6,62.6,100,30.15,3.1,NNE,8.1,-,N/A,,Drizzle,30,2012-11-09 03:00:00
10:00 PM,62.6,62.6,100,30.15,4.3,NNE,8.1,-,N/A,,Mostly Cloudy,20,2012-11-09 04:00:00
11:00 PM,62.6,62.6,100,30.15,4.3,North,11.5,-,N/A,,Mostly Cloudy,360,2012-11-09 05:00:00